TimeGMT,TemperatureF,Dew PointF,Humidity,Sea Level PressureIn,VisibilityMPH,Wind Direction,Wind SpeedMPH,Gust SpeedMPH,PrecipitationIn,Events,Conditions,WindDirDegrees,DateUTC
12:00 AM,38,32,73,30.47,19,NNE,6.7,,,,Mostly Cloudy,20,2013-03-02 00:00:00
12:00 AM,39.2,32.0,75,30.42,6.2,NNE,6.9,-,N/A,,Mostly Cloudy,20,2013-03-02 00:00:00
12:30 AM,37.4,32.0,81,30.42,6.2,NNE,8.1,-,N/A,,Mostly Cloudy,20,2013-03-02 00:30:00
1:00 AM,37.4,32.0,81,30.42,6.2,North,8.1,-,N/A,,Mostly Cloudy,10,2013-03-02 01:00:00
1:30 AM,37.4,32.0,81,30.42,6.2,NNE,8.1,-,N/A,,Mostly Cloudy,20,2013-03-02 01:30:00
2:00 AM,37.4,32.0,81,30.42,6.2,North,9.2,-,N/A,,Mostly Cloudy,10,2013-03-02 02:00:00
2:30 AM,37.4,32.0,81,30.39,6.2,NNE,8.1,-,N/A,,Mostly Cloudy,20,2013-03-02 02:30:00
3:00 AM,37.4,32.0,81,30.39,6.2,NNE,8.1,-,N/A,,Mostly Cloudy,20,2013-03-02 03:00:00
3:30 AM,37.4,32.0,81,30.39,6.2,NNE,8.1,-,N/A,,Mostly Cloudy,30,2013-03-02 03:30:00
4:00 AM,37.4,32.0,81,30.39,6.2,NNE,8.1,-,N/A,,Mostly Cloudy,20,2013-03-02 04:00:00
4:30 AM,37.4,32.0,81,30.39,6.2,NNE,9.2,-,N/A,,Mostly Cloudy,30,2013-03-02 04:30:00
5:00 AM,37.4,32.0,81,30.39,6.2,NNE,6.9,-,N/A,,Mostly Cloudy,20,2013-03-02 05:00:00
5:30 AM,37.4,32.0,81,30.39,6.2,NE,9.2,-,N/A,,Mostly Cloudy,40,2013-03-02 05:30:00
6:00 AM,38,32,73,30.41,19,NNE,8.9,,,,Mostly Cloudy,30,2013-03-02 06:00:00
6:00 AM,37.4,32.0,81,30.36,6.2,NNE,8.1,-,N/A,,Mostly Cloudy,30,2013-03-02 06:00:00
6:30 AM,39.2,32.0,75,30.36,6.2,NE,8.1,-,N/A,,Mostly Cloudy,40,2013-03-02 06:30:00
7:00 AM,39.2,32.0,75,30.36,6.2,NE,8.1,-,N/A,,Mostly Cloudy,40,2013-03-02 07:00:00
7:30 AM,39.2,32.0,75,30.36,6.2,NE,8.1,-,N/A,,Mostly Cloudy,40,2013-03-02 07:30:00
8:00 AM,37.4,32.0,81,30.36,6.2,NNE,6.9,-,N/A,,Mostly Cloudy,20,2013-03-02 08:00:00
8:30 AM,39.2,32.0,75,30.36,6.2,NNE,8.1,-,N/A,,Mostly Cloudy,30,2013-03-02 08:30:00
9:00 AM,39.2,32.0,75,30.36,6.2,NE,9.2,-,N/A,,Mostly Cloudy,40,2013-03-02 09:00:00
9:30 AM,39.2,32.0,75,30.36,6.2,NE,9.2,-,N/A,,Overcast,50,2013-03-02 09:30:00
10:00 AM,39.2,32.0,75,30.36,6.2,NE,9.2,-,N/A,,Overcast,50,2013-03-02 10:00:00
10:30 AM,41.0,32.0,70,30.36,6.2,NE,9.2,-,N/A,,Overcast,40,2013-03-02 10:30:00
11:00 AM,41.0,32.0,70,30.36,6.2,NE,6.9,-,N/A,,Overcast,40,2013-03-02 11:00:00
11:30 AM,41.0,32.0,70,30.36,6.2,NE,8.1,-,N/A,,Overcast,50,2013-03-02 11:30:00
12:00 PM,41,32,60,30.40,9,ENE,8.9,,,,Mist,70,2013-03-02 12:00:00
12:00 PM,41.0,32.0,70,30.36,6.2,ENE,9.2,-,N/A,,Overcast,70,2013-03-02 12:00:00
12:30 PM,41.0,32.0,70,30.36,6.2,ENE,8.1,-,N/A,,Overcast,60,2013-03-02 12:30:00
1:00 PM,41.0,32.0,70,30.36,6.2,ENE,9.2,-,N/A,,Overcast,60,2013-03-02 13:00:00
1:30 PM,41.0,32.0,70,30.33,6.2,ENE,9.2,-,N/A,,Overcast,60,2013-03-02 13:30:00
2:30 PM,41.0,32.0,70,30.33,6.2,ENE,10.4,-,N/A,,Overcast,70,2013-03-02 14:30:00
3:00 PM,41.0,32.0,70,30.33,6.2,East,8.1,-,N/A,,Overcast,90,2013-03-02 15:00:00
3:30 PM,41.0,32.0,70,30.30,6.2,ENE,10.4,-,N/A,,Overcast,70,2013-03-02 15:30:00
4:00 PM,41.0,32.0,70,30.30,6.2,ENE,9.2,-,N/A,,Mostly Cloudy,70,2013-03-02 16:00:00
4:30 PM,41.0,30.2,65,30.30,6.2,ENE,9.2,-,N/A,,Mostly Cloudy,70,2013-03-02 16:30:00
5:00 PM,41.0,32.0,70,30.27,6.2,ENE,10.4,-,N/A,,Mostly Cloudy,60,2013-03-02 17:00:00
5:30 PM,39.2,30.2,70,30.27,6.2,East,9.2,-,N/A,,Mostly Cloudy,90,2013-03-02 17:30:00
6:00 PM,39,31,63,30.32,12,East,8.9,,,,Mostly Cloudy,90,2013-03-02 18:00:00
6:00 PM,39.2,30.2,70,30.27,6.2,East,8.1,-,N/A,,Mostly Cloudy,90,2013-03-02 18:00:00
6:30 PM,39.2,32.0,75,30.27,6.2,East,6.9,-,N/A,,Mostly Cloudy,90,2013-03-02 18:30:00
7:00 PM,39.2,32.0,75,30.27,6.2,East,6.9,-,N/A,,Mostly Cloudy,90,2013-03-02 19:00:00
7:30 PM,39.2,30.2,70,30.30,6.2,East,8.1,-,N/A,,Scattered Clouds,100,2013-03-02 19:30:00
8:00 PM,39.2,32.0,75,30.27,6.2,East,6.9,-,N/A,,Mostly Cloudy,80,2013-03-02 20:00:00
8:30 PM,39.2,32.0,75,30.27,6.2,ENE,8.1,-,N/A,,Mostly Cloudy,60,2013-03-02 20:30:00
9:00 PM,39.2,32.0,75,30.27,6.2,ENE,8.1,-,N/A,,Mostly Cloudy,60,2013-03-02 21:00:00
9:30 PM,39.2,32.0,75,30.27,6.2,ENE,6.9,-,N/A,,Mostly Cloudy,70,2013-03-02 21:30:00
10:00 PM,39.2,33.8,81,30.27,6.2,NE,5.8,-,N/A,,Mostly Cloudy,50,2013-03-02 22:00:00
10:30 PM,39.2,33.8,81,30.27,6.2,NE,6.9,-,N/A,,Mostly Cloudy,40,2013-03-02 22:30:00
11:00 PM,39.2,33.8,81,30.27,6.2,NE,6.9,-,N/A,,Mostly Cloudy,50,2013-03-02 23:00:00
11:30 PM,39.2,33.8,81,30.27,6.2,NE,8.1,-,N/A,,Mostly Cloudy,40,2013-03-02 23:30:00